Location: Cabeza de los Veneras
(40.2000°N, 5.2000°W)
Time: 05:04:04
(UTC+00:00)

BlueWalker 3 - Pass Details

Date: 27 June 2024
Orbit: 480 x 491 km, 53.2° (Epoch: 21 July)

Event Time Altitude Azimuth Distance (km) Brightness Sun altitude
Rises 00:53:43 0° 311° (NW) 2,539 6.0 -26.1°
Reaches altitude 10° 00:55:54 10° 315° (NW) 1,656 5.0 -26.1°
Enters shadow 00:57:54 29° 324° (NW) 899 3.5 -26.0°
